Wetbulb
31.36 31.43 31.71 31.77 31.81 32.11 32.42 33.37 34.97 35.30 37.37 39.04 40.47 40.99 41.63 43.28 46.11 47.42 48.15 50.22 52.61 53.56
31.48 31.65 31.65 32.52 33.28 33.21 33.73 34.20 34.65 34.95 35.28 36.12 37.89 39.85 39.89 40.52 44.01 47.49 49.53 52.03 52.74 52.87
31.29 32.11 33.10 34.29 34.57 34.52 34.52 34.29 34.44 34.92 35.68 36.67 37.29 38.96 39.68 40.33 43.08 48.00 48.72 51.78 51.96 51.94
31.15 32.03 32.71 33.28 34.00 35.81 34.99 34.31 34.06 34.86 35.06 35.52 36.90 39.49 39.76 40.82 41.66 44.20 47.46 49.90 51.23 50.33
30.69 30.81 30.94 31.33 32.59 33.96 34.00 34.18 34.16 35.33 35.30 36.02 37.18 38.11 39.44 38.76 40.18 42.28 44.31 44.67 43.37 41.99
28.99 29.10 28.71 29.84 31.31 32.08 32.11 33.32 34.47 35.59 34.93 34.06 34.02 34.30 36.41 37.32 38.19 40.58 43.15 42.01 43.40 39.80
26.78 27.98 28.55 29.78 30.38 30.99 31.86 31.99 33.29 34.30 34.50 34.58 34.69 34.36 34.78 35.20 36.45 38.24 37.53 37.40 38.20 38.02
25.62 27.84 28.02 28.61 29.69 31.06 31.71 32.02 32.15 32.38 32.91 33.94 34.40 35.07 35.16 36.08 35.74 34.76 33.93 34.38 35.19 35.38
24.28 25.83 26.98 27.98 28.80 29.43 30.42 31.68 32.29 32.16 32.18 32.70 33.20 37.60 38.62 36.45 34.93 34.23 33.70 32.88 33.38 34.18
23.50 24.28 25.50 26.78 27.18 28.21 28.61 29.65 30.37 31.48 31.95 32.18 34.11 37.11 36.85 35.40 33.88 33.36 33.01 32.78 32.44 32.20
24.09 24.32 25.22 25.12 25.69 26.70 28.29 28.22 28.70 29.59 30.54 31.61 32.82 34.46 33.76 32.57 31.21 30.62 30.65 31.19 31.55 30.85
24.95 23.68 23.29 23.79 24.80 26.47 27.00 27.21 27.90 28.79 29.53 29.53 30.28 33.79 32.79 30.35 28.74 27.64 27.57 28.49 28.99 28.97
24.47 24.73 23.99 24.34 25.51 26.85 27.29 26.99 27.48 27.81 28.55 29.14 29.68 32.68 31.89 29.50 27.65 26.28 26.68 28.08 29.03 30.05
24.59 24.12 24.69 25.68 26.24 26.24 26.74 26.68 26.51 25.94 26.42 28.49 29.46 30.63 31.60 30.34 26.95 25.72 24.90 24.91 25.61 27.57
MSLP
1008.87 1008.17 1007.40 1006.77 1006.16 1005.42 1004.84 1004.42 1004.24 1004.04 1003.64 1003.32 1003.07 1002.98 1003.02 1002.97 1002.91 1002.96 1002.90 1003.89 1002.93 1002.77
1007.96 1007.22 1006.33 1005.61 1004.97 1004.17 1003.72 1003.35 1003.11 1002.90 1002.68 1002.62 1002.49 1002.29 1002.22 1002.04 1001.86 1001.96 1002.02 1001.81 1001.42 1002.13
1007.06 1006.17 1005.23 1004.28 1003.37 1002.57 1002.25 1002.20 1002.05 1001.77 1001.60 1001.49 1001.41 1001.32 1001.13 1001.02 1000.93 1000.63 1000.32 1000.24 1000.57 1001.64
1006.26 1005.24 1004.39 1003.47 1002.31 1001.15 1000.90 1000.96 1000.92 1000.73 1000.66 1000.55 1000.46 1000.30 1000.37 1000.41 1000.38 1000.32 999.70 999.73 999.71 1001.32
1005.89 1004.82 1003.93 1002.77 1001.63 1000.76 999.96 999.76 999.81 999.65 999.66 999.64 999.52 999.61 999.81 999.90 999.90 999.86 999.64 999.57 1000.02 1000.43
1005.75 1004.68 1003.67 1002.51 1001.25 1000.19 999.44 998.73 998.44 998.49 998.65 998.84 998.91 999.00 999.32 999.57 999.49 999.37 999.25 999.12 999.75 999.95
1005.89 1004.77 1003.66 1002.46 1001.15 999.89 998.81 998.14 997.75 997.61 997.62 997.80 998.03 998.22 998.63 998.96 998.95 998.79 998.66 998.77 999.29 1000.06
1006.07 1004.78 1003.66 1002.50 1001.30 1000.02 998.84 998.08 997.59 997.29 997.09 997.03 997.03 997.21 997.50 997.71 997.91 998.23 998.56 999.02 999.32 1000.10
1006.31 1005.19 1004.04 1002.86 1001.65 1000.43 999.53 998.72 998.03 997.54 997.13 996.72 996.51 996.47 996.47 996.76 997.55 998.08 998.47 999.28 1000.02 1000.69
1006.77 1005.75 1004.66 1003.67 1002.52 1001.33 1000.46 999.80 999.13 998.52 998.00 997.53 997.11 996.87 997.27 997.70 998.09 998.72 999.29 999.85 1000.22 1001.79
1007.27 1006.36 1005.41 1004.40 1003.47 1002.55 1001.62 1000.92 1000.43 999.93 999.58 999.15 998.83 998.34 998.60 998.88 999.22 999.68 1000.46 1001.14 1001.68 1002.27
1007.91 1007.12 1006.19 1005.38 1004.58 1003.85 1002.97 1002.05 1001.80 1001.47 1000.96 1000.63 1000.34 999.87 999.57 999.99 1000.98 1001.13 1001.88 1002.40 1003.64 1004.06
1008.51 1007.70 1006.96 1006.25 1005.54 1004.98 1004.35 1003.73 1003.37 1002.69 1002.45 1002.11 1001.59 1001.58 1001.34 1001.56 1002.08 1002.83 1004.12 1004.55 1005.18 1005.25
1009.01 1008.25 1007.64 1007.09 1006.45 1005.89 1005.34 1004.91 1004.62 1004.41 1004.21 1003.71 1003.72 1003.63 1003.41 1003.35 1004.43 1004.92 1005.25 1006.00 1006.37 1006.10
Wind_Speed
16 11 12 15 13 12 12 12 14 14 13 11 11 10 9 9 10 12 13 20 19 14
15 15 15 18 17 13 15 13 15 16 14 14 16 18 17 13 15 13 13 16 14 14
15 16 15 15 18 18 15 15 15 16 15 15 15 15 12 9 10 11 11 10 15 13
15 15 15 15 15 14 14 14 14 15 14 14 15 13 13 13 10 14 11 10 15 17
15 14 14 15 14 13 14 13 14 14 13 13 11 10 10 10 9 13 10 11 9 10
14 14 14 14 13 12 11 12 13 13 12 12 12 11 9 9 11 12 12 10 11 10
14 14 13 13 12 11 8 8 9 11 12 12 12 10 11 12 11 12 8 8 10 10
13 12 12 11 11 10 8 6 4 3 6 10 9 9 12 12 11 10 9 9 11 10
12 12 12 12 11 11 11 10 7 6 4 3 1 9 14 12 9 11 13 12 12 12
12 11 12 12 12 13 13 12 13 12 10 10 9 18 16 14 10 11 12 13 14 11
12 11 12 12 13 13 12 15 14 14 13 12 12 24 24 22 14 14 14 13 13 14
10 10 11 13 13 11 12 14 14 14 15 14 14 23 26 20 12 16 15 14 10 10
9 9 10 11 12 11 9 12 11 15 15 17 17 27 26 20 11 15 11 13 13 20
9 7 9 9 10 10 11 12 14 16 16 17 17 21 27 24 11 9 10 10 9 10
Wind_Direction
288 281 278 271 267 264 258 254 251 251 250 249 247 244 241 239 234 228 222 234 212 215
289 282 277 275 268 261 257 252 251 249 247 246 246 239 237 235 235 223 228 222 205 218
292 287 282 275 271 259 252 246 249 246 241 237 240 249 248 248 255 233 228 221 200 206
300 298 293 286 289 259 250 241 242 241 242 242 245 236 232 232 232 247 218 211 198 204
306 307 299 295 289 284 253 236 235 237 231 237 241 243 249 237 235 241 236 189 174 167
315 315 309 305 303 295 274 250 233 226 224 230 235 223 232 254 234 241 244 189 188 163
324 324 321 315 315 313 304 272 242 228 222 220 222 218 224 228 234 231 198 162 150 150
327 328 330 333 330 330 335 337 324 279 235 228 222 221 219 213 181 154 126 118 122 122
334 340 341 339 347 2 4 6 13 24 25 26 132 198 179 149 140 129 122 113 103 108
339 344 349 354 0 13 19 21 24 30 37 50 62 84 91 102 100 105 106 114 110 105
347 350 358 6 13 12 27 34 32 32 36 51 67 85 88 83 85 85 84 82 96 109
348 355 4 14 13 16 29 39 39 37 39 45 49 60 72 74 73 77 72 76 84 107
342 4 10 17 16 21 29 43 42 46 44 48 51 54 66 71 63 73 76 75 72 85
346 1 12 20 21 21 36 43 47 47 35 42 49 54 60 65 69 74 76 77 69 69